Regional Weather Roundup
Issued by NWS

Home | Current Version | Previous Version | Text Only | Print | Product List | Glossary On
Versions: 1 2 3 4 5 6 7 8 9 10 11 12 13 14 15 16 17 18 19 20 21 22 23 24 25 26 27 28 29 30 31 32 33 34 35 36 37 38 39 40 41 42 43 44 45 46 47 48 49 50
000
ASUS43 KFSD 010302
RWRSD

WEATHER ROUNDUP FOR SOUTH DAKOTA
NATIONAL WEATHER SERVICE SIOUX FALLS SD
1000 PM CDT SAT APR 30 2016

NOTE: "FAIR" INDICATES FEW OR NO CLOUDS BELOW 12,000 FEET WITH NO
SIGNIFICANT WEATHER AND/OR OBSTRUCTIONS TO VISIBILITY.


SDZ001>005-009-010-012>017-010400-
NORTHWEST AND NORTH CENTRAL SOUTH DAKOTA

CITY           SKY/WX    TMP DP  RH WIND       PRES   REMARKS
BUFFALO          N/A     42  29  59 NE10      30.18R
FAITH            N/A     40  29  64 N9        30.20R
MOBRIDGE       CLOUDY    50  29  44 NE12      30.16R
$$

SDZ012>016-024>037-041>051-057-063-072>074-010400-
SOUTHWEST AND SOUTH CENTRAL SOUTH DAKOTA

CITY           SKY/WX    TMP DP  RH WIND       PRES   REMARKS
RAPID CTY ARPT PTCLDY    40  31  70 N10       30.19R
PIERRE         CLOUDY    45  37  73 NE9       30.13R
CUSTER         CLOUDY    36  25  64 N14G29    30.16R
ELLSWORTH AFB  PTCLDY    45  31  57 N9        30.19R
PHILIP         CLOUDY    48  35  60 NE14      30.15R
PINE RIDGE     LGT RAIN  40  36  86 NE9       30.14R
WINNER         LGT RAIN  43  39  86 NE16      30.11R
$$

SDZ004>011-016>023-039-040-010400-
NORTHEAST SOUTH DAKOTA

CITY           SKY/WX    TMP DP  RH WIND       PRES   REMARKS
ABERDEEN       CLOUDY    50  31  48 NE9       30.14R
WATERTOWN      CLOUDY    48  34  58 NE12      30.11R
BROOKINGS      CLOUDY    45  40  82 NE5       30.07R
SISSETON         N/A     49  33  54 SE9       30.14R
$$

SDZ017-020-022-023-036>040-048>070-010400-
SOUTHEAST SOUTH DAKOTA

CITY           SKY/WX    TMP DP  RH WIND       PRES   REMARKS
SIOUX FALLS    LGT RAIN  44  40  85 E14       30.05R
HURON          CLOUDY    50  38  63 NE12      30.10R
MITCHELL       LGT RAIN  45  42  89 NE10      30.10R
YANKTON        CLOUDY    43  39  87 NE26G33   30.00R
$$

ABBREVIATIONS USED IN REMARKS
   TC - TEMPERATURE IN CELSIUS
  WCI - WIND CHILL INDEX
   HX - HEAT INDEX
  VSB - VISIBILITY





USA.gov is the U.S. government's official web portal to all federal, state and local government web resources and services.